ENT4091 EPKT-HEMA

Flight info

Callsign ENT4091
Flight time N/A
Altitude 35000
Route REGTO DCT RAZEC DCT KEKED DCT BADOR DCT DENAK DCT RIXEN UL620 IST UT35 AYT UA16 TOMBI DCT PEDER/N0475F370 DCT MAROS M855 RASDA A16 CVO L315 SOBEL V730 MAK
Aircraft B738/M-SDE2E3FGHIRWXY/LB1

Departure

Time N/A
Airport Katowice Wojciech Korfanty International Airport (EPKT)

Arrival

Time 2026-05-03 22:55
Airport Marsa Alam International Airport (HEMA)
Time Latitude Longitude Altitude Speed Heading
2026-05-03 20:15 43.13158 27.95855 35098 ft 441 kts 149°
2026-05-03 20:15 43.07826 28.00035 35108 ft 440 kts 149°
2026-05-03 20:16 43.02514 28.04191 35114 ft 440 kts 149°
2026-05-03 20:16 42.97191 28.08348 35123 ft 441 kts 149°
2026-05-03 20:17 42.91852 28.12508 35109 ft 442 kts 149°
2026-05-03 20:17 42.86543 28.16637 35109 ft 442 kts 149°
2026-05-03 20:18 42.81185 28.20795 35107 ft 442 kts 149°
2026-05-03 20:18 42.75837 28.24938 35093 ft 443 kts 150°
2026-05-03 20:19 42.70478 28.29080 35096 ft 443 kts 149°
2026-05-03 20:19 42.65121 28.33212 35082 ft 442 kts 150°
2026-05-03 20:20 42.59809 28.37302 35081 ft 441 kts 150°
2026-05-03 20:20 42.54469 28.41405 35090 ft 440 kts 150°
2026-05-03 20:21 42.49764 28.45014 35094 ft 439 kts 150°
2026-05-03 20:21 42.44452 28.49081 35087 ft 438 kts 150°
2026-05-03 20:22 42.39143 28.53138 35072 ft 437 kts 150°
2026-05-03 20:22 42.33874 28.57156 35084 ft 437 kts 150°
2026-05-03 20:23 42.28573 28.61191 35066 ft 438 kts 150°
2026-05-03 20:23 42.23257 28.65229 35082 ft 439 kts 150°
2026-05-03 20:24 42.17915 28.69281 35071 ft 441 kts 150°
2026-05-03 20:24 42.12548 28.73342 35057 ft 441 kts 150°
2026-05-03 20:25 42.06809 28.76280 35065 ft 444 kts 167°
2026-05-03 20:25 42.00645 28.77031 35057 ft 445 kts 177°
2026-05-03 20:26 41.94473 28.77167 35063 ft 446 kts 176°
2026-05-03 20:26 41.88269 28.77391 35042 ft 446 kts 176°
2026-05-03 20:27 41.82074 28.77640 35041 ft 444 kts 176°
2026-05-03 20:27 41.75893 28.77879 35047 ft 444 kts 175°
2026-05-03 20:28 41.69719 28.78119 35037 ft 444 kts 176°
2026-05-03 20:28 41.63569 28.78359 35025 ft 444 kts 176°
2026-05-03 20:29 41.57389 28.78600 35036 ft 444 kts 175°
2026-05-03 20:29 41.51216 28.78841 35021 ft 444 kts 176°
2026-05-03 20:30 41.45041 28.79081 34996 ft 444 kts 176°
2026-05-03 20:30 41.38845 28.79322 35004 ft 446 kts 176°
2026-05-03 20:31 41.32619 28.79564 35005 ft 448 kts 176°
2026-05-03 20:31 41.26424 28.79805 34996 ft 449 kts 176°
2026-05-03 20:32 41.20174 28.80051 34987 ft 450 kts 176°
2026-05-03 20:32 41.13903 28.80318 35007 ft 451 kts 176°
2026-05-03 20:33 41.07608 28.80587 34996 ft 453 kts 176°
2026-05-03 20:33 41.01311 28.80852 34991 ft 453 kts 176°
2026-05-03 20:34 40.95083 28.81778 35006 ft 449 kts 163°
2026-05-03 20:34 40.89257 28.84697 34994 ft 448 kts 156°
2026-05-03 20:35 40.83552 28.87892 34991 ft 447 kts 155°
2026-05-03 20:35 40.77827 28.91054 34972 ft 445 kts 155°
2026-05-03 20:36 40.72109 28.94172 34972 ft 443 kts 155°
2026-05-03 20:36 40.66421 28.97259 34956 ft 442 kts 156°
2026-05-03 20:37 40.60769 29.00318 34962 ft 441 kts 156°
2026-05-03 20:37 40.55059 29.03404 34963 ft 442 kts 156°
2026-05-03 20:38 40.49390 29.06465 34986 ft 443 kts 156°
2026-05-03 20:38 40.43672 29.09544 34970 ft 445 kts 156°
2026-05-03 20:39 40.37931 29.12630 34953 ft 447 kts 156°
2026-05-03 20:39 40.32153 29.15732 34944 ft 449 kts 156°
2026-05-03 20:40 40.26357 29.18837 34945 ft 451 kts 156°
2026-05-03 20:40 40.20571 29.21931 34932 ft 452 kts 156°
2026-05-03 20:41 40.14732 29.25047 34923 ft 453 kts 156°
2026-05-03 20:41 40.08908 29.28148 34918 ft 451 kts 155°
2026-05-03 20:42 40.03107 29.31233 34925 ft 449 kts 155°
2026-05-03 20:42 39.97324 29.34304 34908 ft 448 kts 155°
2026-05-03 20:43 39.91549 29.37364 34897 ft 447 kts 155°
2026-05-03 20:43 39.85804 29.40474 34891 ft 448 kts 155°
2026-05-03 20:44 39.80057 29.43659 34888 ft 450 kts 155°
2026-05-03 20:44 39.74273 29.46849 34881 ft 452 kts 155°
2026-05-03 20:45 39.68483 29.50023 34863 ft 454 kts 155°
2026-05-03 20:45 39.62641 29.53202 34853 ft 456 kts 156°
2026-05-03 20:46 39.56718 29.56186 34857 ft 457 kts 157°
2026-05-03 20:46 39.50770 29.59106 34837 ft 456 kts 157°
2026-05-03 20:47 39.44881 29.62016 34833 ft 456 kts 157°
2026-05-03 20:47 39.38957 29.64959 34828 ft 456 kts 157°
2026-05-03 20:48 39.33035 29.67902 34826 ft 455 kts 157°
2026-05-03 20:48 39.27122 29.70834 34827 ft 455 kts 157°
2026-05-03 20:49 39.21197 29.73766 34812 ft 456 kts 157°
2026-05-03 20:49 39.15259 29.76699 34807 ft 456 kts 157°
2026-05-03 20:50 39.09360 29.79608 34808 ft 458 kts 158°
2026-05-03 20:50 39.03404 29.82540 34803 ft 459 kts 158°
2026-05-03 20:51 38.97433 29.85474 34801 ft 460 kts 158°
2026-05-03 20:51 38.91430 29.88419 34797 ft 462 kts 159°
2026-05-03 20:52 38.85392 29.91348 34801 ft 464 kts 159°
2026-05-03 20:52 38.79369 29.94204 34790 ft 465 kts 159°
2026-05-03 20:53 38.73283 29.97080 34793 ft 465 kts 159°
2026-05-03 20:53 38.68239 29.99469 34780 ft 465 kts 159°
2026-05-03 20:54 38.62160 30.02346 34787 ft 464 kts 159°
2026-05-03 20:54 38.53077 30.06637 34781 ft 463 kts 159°
2026-05-03 20:55 38.47023 30.09491 34773 ft 464 kts 160°
2026-05-03 20:55 38.40998 30.12327 34772 ft 464 kts 160°
2026-05-03 20:56 38.34926 30.15179 34780 ft 465 kts 160°
2026-05-03 20:56 38.28833 30.17999 34764 ft 465 kts 160°
2026-05-03 20:57 38.22771 30.20774 34766 ft 466 kts 161°
2026-05-03 20:57 38.16667 30.23576 34768 ft 466 kts 161°
2026-05-03 20:58 38.10563 30.26376 34763 ft 467 kts 161°
2026-05-03 20:58 38.04451 30.29175 34753 ft 467 kts 161°
2026-05-03 20:59 37.98360 30.31952 34747 ft 468 kts 161°
2026-05-03 20:59 37.92215 30.34735 34743 ft 468 kts 161°
2026-05-03 21:00 37.87106 30.37045 34745 ft 469 kts 161°
2026-05-03 21:00 37.79915 30.40292 34744 ft 470 kts 162°
2026-05-03 21:01 37.73754 30.43070 34751 ft 470 kts 162°
2026-05-03 21:01 37.67626 30.45829 34749 ft 471 kts 162°
2026-05-03 21:02 37.61446 30.48605 34737 ft 471 kts 162°
2026-05-03 21:02 37.55271 30.51376 34720 ft 471 kts 162°
2026-05-03 21:03 37.49091 30.54143 34711 ft 471 kts 162°
2026-05-03 21:03 37.42912 30.56904 34711 ft 471 kts 162°
2026-05-03 21:04 37.36733 30.59661 34711 ft 471 kts 162°
2026-05-03 21:04 37.30587 30.62399 34702 ft 471 kts 163°
2026-05-03 21:05 37.24402 30.65150 34705 ft 472 kts 163°
2026-05-03 21:05 37.18207 30.67899 34701 ft 473 kts 163°
2026-05-03 21:06 37.11990 30.70655 34705 ft 473 kts 163°
2026-05-03 21:06 37.05777 30.73404 34708 ft 473 kts 163°
2026-05-03 21:07 36.99606 30.76129 34720 ft 472 kts 163°
2026-05-03 21:07 36.93386 30.78802 34716 ft 471 kts 168°
2026-05-03 21:08 36.86950 30.79787 34714 ft 464 kts 182°
2026-05-03 21:08 36.80538 30.79915 34714 ft 463 kts 182°
2026-05-03 21:09 36.74083 30.80076 34713 ft 464 kts 182°
2026-05-03 21:09 36.67631 30.80289 34712 ft 464 kts 182°
2026-05-03 21:10 36.61176 30.80516 34712 ft 463 kts 182°
2026-05-03 21:10 36.54773 30.80739 34709 ft 463 kts 182°
2026-05-03 21:11 36.48299 30.80963 34714 ft 462 kts 182°
2026-05-03 21:11 36.41902 30.81183 34711 ft 462 kts 182°
2026-05-03 21:12 36.35478 30.81399 34721 ft 462 kts 182°
2026-05-03 21:12 36.29046 30.81613 34719 ft 461 kts 182°
2026-05-03 21:13 36.22625 30.81827 34715 ft 461 kts 183°
2026-05-03 21:13 36.16207 30.82041 34724 ft 461 kts 183°
2026-05-03 21:14 36.09836 30.82253 34741 ft 460 kts 183°
2026-05-03 21:14 36.03420 30.82467 34748 ft 460 kts 183°
2026-05-03 21:15 35.97015 30.82750 34762 ft 460 kts 183°
2026-05-03 21:15 35.90610 30.83067 34758 ft 460 kts 183°
2026-05-03 21:16 35.84208 30.83378 34761 ft 460 kts 183°
2026-05-03 21:16 35.77816 30.83680 34750 ft 459 kts 184°
2026-05-03 21:17 35.72498 30.83930 34762 ft 459 kts 184°
2026-05-03 21:17 35.65072 30.84276 34773 ft 459 kts 184°
2026-05-03 21:18 35.58685 30.84574 34781 ft 459 kts 184°
2026-05-03 21:18 35.52297 30.84872 34787 ft 458 kts 184°
2026-05-03 21:19 35.45922 30.85169 34788 ft 458 kts 184°
2026-05-03 21:19 35.39579 30.85464 34803 ft 458 kts 184°
2026-05-03 21:20 35.33198 30.85760 34800 ft 458 kts 185°
2026-05-03 21:20 35.26821 30.86056 34811 ft 458 kts 185°
2026-05-03 21:21 35.20451 30.86350 34819 ft 457 kts 185°
2026-05-03 21:21 35.15222 30.86579 34828 ft 457 kts 186°
2026-05-03 21:22 35.10941 30.86725 34820 ft 456 kts 187°
2026-05-03 21:22 35.04599 30.86922 34831 ft 455 kts 187°
2026-05-03 21:23 34.98266 30.87124 34847 ft 455 kts 187°
2026-05-03 21:23 34.91933 30.87333 34846 ft 454 kts 187°
2026-05-03 21:24 34.85619 30.87544 34847 ft 453 kts 187°
2026-05-03 21:24 34.79323 30.87753 34861 ft 452 kts 187°
2026-05-03 21:25 34.73076 30.87958 34869 ft 452 kts 187°
2026-05-03 21:25 34.66782 30.88166 34858 ft 451 kts 188°
2026-05-03 21:26 34.60504 30.88376 34877 ft 451 kts 188°
2026-05-03 21:26 34.54217 30.88675 34884 ft 452 kts 187°
2026-05-03 21:27 34.47966 30.89001 34886 ft 452 kts 187°
2026-05-03 21:27 34.41674 30.89318 34890 ft 452 kts 188°
2026-05-03 21:28 34.35388 30.89625 34888 ft 452 kts 188°
2026-05-03 21:28 34.29092 30.89933 34894 ft 453 kts 188°
2026-05-03 21:29 34.22789 30.90244 34903 ft 453 kts 187°
2026-05-03 21:29 34.16481 30.90593 34907 ft 454 kts 187°
2026-05-03 21:30 34.10162 30.90952 34925 ft 454 kts 187°
2026-05-03 21:30 34.03863 30.91302 35242 ft 455 kts 187°
2026-05-03 21:31 34.00703 30.91479 35475 ft 452 kts 187°
2026-05-03 21:31 33.97579 30.91655 35870 ft 447 kts 187°
2026-05-03 21:31 33.94468 30.91824 36082 ft 447 kts 187°
2026-05-03 21:31 33.91352 30.91960 36205 ft 448 kts 188°
2026-05-03 21:32 33.85135 30.92182 36437 ft 451 kts 188°
2026-05-03 21:32 33.81999 30.92292 36634 ft 451 kts 188°
2026-05-03 21:32 33.78822 30.92408 36818 ft 451 kts 187°
2026-05-03 21:33 33.75732 30.92524 36919 ft 449 kts 188°
2026-05-03 21:33 33.72599 30.92641 36944 ft 451 kts 188°
2026-05-03 21:33 33.66306 30.92876 36960 ft 453 kts 188°
2026-05-03 21:34 33.59991 30.93116 36963 ft 455 kts 188°
2026-05-03 21:34 33.53657 30.93357 36934 ft 454 kts 188°
2026-05-03 21:35 33.47349 30.93598 36956 ft 453 kts 188°
2026-05-03 21:35 33.41050 30.93836 36972 ft 452 kts 188°
2026-05-03 21:36 33.34805 30.94071 36979 ft 451 kts 188°
2026-05-03 21:36 33.28541 30.94307 36974 ft 449 kts 189°
2026-05-03 21:37 33.22303 30.94541 36979 ft 447 kts 189°
2026-05-03 21:37 33.16082 30.94773 36988 ft 446 kts 189°
2026-05-03 21:38 33.09912 30.95010 36993 ft 447 kts 188°
2026-05-03 21:38 33.03683 30.95595 36984 ft 450 kts 185°
2026-05-03 21:39 32.97451 30.96354 36985 ft 450 kts 185°
2026-05-03 21:39 32.91221 30.97095 36996 ft 449 kts 185°
2026-05-03 21:40 32.84999 30.97802 36943 ft 449 kts 185°
2026-05-03 21:40 32.78831 30.98491 37001 ft 448 kts 185°
2026-05-03 21:41 32.72632 30.99180 37011 ft 447 kts 185°
2026-05-03 21:41 32.66427 30.99869 37010 ft 448 kts 185°
2026-05-03 21:42 32.60218 31.00558 36989 ft 447 kts 185°
2026-05-03 21:42 32.55071 31.01131 37002 ft 446 kts 185°
2026-05-03 21:43 32.48885 31.01817 37022 ft 446 kts 186°
2026-05-03 21:43 32.42712 31.02500 37021 ft 445 kts 186°
2026-05-03 21:44 32.36538 31.03182 36975 ft 445 kts 186°
2026-05-03 21:44 32.30394 31.03862 37016 ft 442 kts 186°
2026-05-03 21:45 32.24279 31.04536 37032 ft 441 kts 186°
2026-05-03 21:45 32.18201 31.05204 37036 ft 440 kts 186°
2026-05-03 21:46 32.12107 31.05874 36996 ft 439 kts 186°
2026-05-03 21:46 32.06037 31.06541 37027 ft 437 kts 186°
2026-05-03 21:47 31.99983 31.07201 37040 ft 436 kts 186°
2026-05-03 21:47 31.93946 31.07851 37047 ft 435 kts 186°
2026-05-03 21:48 31.87954 31.08494 37045 ft 435 kts 186°
2026-05-03 21:48 31.81912 31.09142 37041 ft 435 kts 186°
2026-05-03 21:49 31.75875 31.09790 37044 ft 435 kts 186°
2026-05-03 21:49 31.69833 31.10437 37053 ft 436 kts 186°
2026-05-03 21:50 31.63827 31.11081 37005 ft 436 kts 186°
2026-05-03 21:50 31.57785 31.11727 37044 ft 435 kts 187°
2026-05-03 21:51 31.51749 31.12415 37049 ft 439 kts 184°
2026-05-03 21:51 31.45677 31.13527 37055 ft 443 kts 182°
2026-05-03 21:52 31.39587 31.14731 37012 ft 443 kts 182°
2026-05-03 21:52 31.33517 31.15888 37045 ft 442 kts 183°
2026-05-03 21:53 31.27470 31.17016 37066 ft 442 kts 183°
2026-05-03 21:53 31.21396 31.18150 37064 ft 442 kts 183°
2026-05-03 21:54 31.15341 31.19278 37051 ft 443 kts 183°
2026-05-03 21:54 31.09261 31.20410 37060 ft 442 kts 184°
2026-05-03 21:55 31.03175 31.21541 37070 ft 442 kts 184°
2026-05-03 21:55 30.97091 31.22670 37069 ft 443 kts 184°
2026-05-03 21:56 30.91007 31.23798 37068 ft 443 kts 184°
2026-05-03 21:56 30.84962 31.24919 37063 ft 442 kts 184°
2026-05-03 21:57 30.78884 31.26044 37063 ft 442 kts 184°
2026-05-03 21:57 30.72811 31.27165 37069 ft 442 kts 184°
2026-05-03 21:58 30.66725 31.28288 37067 ft 442 kts 184°
2026-05-03 21:58 30.60657 31.29407 37065 ft 441 kts 184°
2026-05-03 21:59 30.54595 31.30523 37081 ft 440 kts 184°
2026-05-03 21:59 30.48583 31.31627 37067 ft 440 kts 184°
2026-05-03 22:00 30.42535 31.32738 37086 ft 440 kts 184°
2026-05-03 22:00 30.38874 31.33411 36995 ft 440 kts 183°
2026-05-03 22:01 30.33581 31.34384 37066 ft 438 kts 183°
2026-05-03 22:01 30.27560 31.35488 37067 ft 438 kts 183°
2026-05-03 22:02 30.21541 31.36590 37074 ft 438 kts 183°
2026-05-03 22:02 30.15521 31.37692 37081 ft 438 kts 183°
2026-05-03 22:03 30.09513 31.39412 37082 ft 459 kts 169°
2026-05-03 22:03 30.06630 31.41024 37070 ft 473 kts 161°
2026-05-03 22:03 30.03859 31.43190 37086 ft 483 kts 155°
2026-05-03 22:04 29.98458 31.47873 37073 ft 486 kts 154°
2026-05-03 22:04 29.93061 31.52600 37042 ft 486 kts 154°
2026-05-03 22:05 29.87677 31.57240 37075 ft 485 kts 155°
2026-05-03 22:05 29.82253 31.61862 37041 ft 484 kts 155°
2026-05-03 22:06 29.76839 31.66458 37074 ft 483 kts 155°
2026-05-03 22:06 29.71433 31.71041 37085 ft 483 kts 155°
2026-05-03 22:07 29.66028 31.75619 37073 ft 482 kts 155°
2026-05-03 22:07 29.60630 31.80189 37069 ft 481 kts 155°
2026-05-03 22:08 29.55244 31.84741 37082 ft 480 kts 155°
2026-05-03 22:08 29.49861 31.89284 37042 ft 479 kts 155°
2026-05-03 22:09 29.44486 31.93813 37078 ft 479 kts 155°
2026-05-03 22:10 29.36452 32.00571 37075 ft 480 kts 155°
2026-05-03 22:10 29.31062 32.05098 37091 ft 480 kts 155°
2026-05-03 22:11 29.25659 32.09631 37082 ft 481 kts 155°
2026-05-03 22:11 29.20278 32.14139 37071 ft 481 kts 155°
2026-05-03 22:12 29.14859 32.18673 37080 ft 481 kts 155°
2026-05-03 22:12 29.09446 32.23197 37071 ft 481 kts 155°
2026-05-03 22:13 29.04041 32.27707 37072 ft 481 kts 155°
2026-05-03 22:13 28.98672 32.32182 37066 ft 480 kts 155°
2026-05-03 22:14 28.93277 32.36672 37035 ft 479 kts 155°
2026-05-03 22:14 28.87892 32.41149 37024 ft 478 kts 155°
2026-05-03 22:15 28.82525 32.45603 37033 ft 476 kts 155°
2026-05-03 22:15 28.77180 32.50035 37062 ft 476 kts 155°
2026-05-03 22:16 28.71826 32.54466 37061 ft 475 kts 155°
2026-05-03 22:16 28.66478 32.58888 37065 ft 474 kts 155°
2026-05-03 22:17 28.61166 32.63274 37040 ft 474 kts 155°
2026-05-03 22:17 28.55838 32.67669 37013 ft 473 kts 155°
2026-05-03 22:18 28.50518 32.72051 37053 ft 472 kts 155°
2026-05-03 22:18 28.45196 32.76428 37052 ft 472 kts 155°
2026-05-03 22:19 28.39867 32.80805 37052 ft 473 kts 155°
2026-05-03 22:19 28.34529 32.85184 37042 ft 473 kts 155°
2026-05-03 22:20 28.29184 32.89564 37021 ft 474 kts 155°
2026-05-03 22:20 28.23826 32.93951 36995 ft 474 kts 155°
2026-05-03 22:21 28.18524 32.98288 37021 ft 472 kts 156°
2026-05-03 22:21 28.13193 33.02640 37035 ft 471 kts 156°
2026-05-03 22:22 28.07872 33.06979 37005 ft 471 kts 156°
2026-05-03 22:22 28.02549 33.11315 37020 ft 471 kts 156°
2026-05-03 22:23 27.97226 33.15643 37007 ft 470 kts 156°
2026-05-03 22:23 27.91909 33.19960 36951 ft 470 kts 156°
2026-05-03 22:24 27.86629 33.24245 36992 ft 469 kts 156°
2026-05-03 22:24 27.81317 33.28548 36986 ft 470 kts 156°
2026-05-03 22:25 27.75985 33.32863 36983 ft 471 kts 156°
2026-05-03 22:25 27.70646 33.37180 36979 ft 472 kts 156°
2026-05-03 22:26 27.65332 33.41472 36975 ft 473 kts 156°
2026-05-03 22:26 27.59969 33.45798 36940 ft 474 kts 156°
2026-05-03 22:27 27.54607 33.50120 36962 ft 474 kts 156°
2026-05-03 22:27 27.49229 33.54444 36968 ft 474 kts 156°
2026-05-03 22:28 27.46867 33.56341 36971 ft 475 kts 156°
2026-05-03 22:28 27.44124 33.58543 36964 ft 475 kts 156°
2026-05-03 22:29 27.40163 33.61720 36969 ft 474 kts 156°
2026-05-03 22:29 27.34820 33.66004 36969 ft 474 kts 156°
2026-05-03 22:30 27.29443 33.70310 36940 ft 474 kts 156°
2026-05-03 22:30 27.24086 33.74597 36961 ft 472 kts 156°
2026-05-03 22:31 27.19624 33.78161 36965 ft 473 kts 156°
2026-05-03 22:31 27.14529 33.83007 36980 ft 488 kts 146°
2026-05-03 22:32 27.09758 33.88490 36968 ft 491 kts 145°
2026-05-03 22:32 27.04979 33.93961 36949 ft 491 kts 146°
2026-05-03 22:32 27.02551 33.96690 36392 ft 497 kts 146°
2026-05-03 22:33 27.00107 33.99423 35860 ft 493 kts 146°
2026-05-03 22:33 26.97680 34.02133 35197 ft 494 kts 146°
2026-05-03 22:33 26.95242 34.04850 34518 ft 495 kts 145°
2026-05-03 22:33 26.92796 34.07574 33752 ft 497 kts 145°
2026-05-03 22:34 26.90345 34.10307 32973 ft 497 kts 144°
2026-05-03 22:34 26.87893 34.13039 32224 ft 497 kts 144°
2026-05-03 22:34 26.85352 34.15544 31476 ft 487 kts 153°
2026-05-03 22:34 26.82527 34.17551 30737 ft 476 kts 161°
2026-05-03 22:35 26.79541 34.19101 29899 ft 469 kts 168°
2026-05-03 22:35 26.76439 34.20155 28857 ft 465 kts 173°
2026-05-03 22:35 26.73304 34.21092 27766 ft 468 kts 173°
2026-05-03 22:35 26.70138 34.22035 26626 ft 473 kts 172°
2026-05-03 22:36 26.66943 34.22998 25515 ft 478 kts 171°
2026-05-03 22:36 26.63744 34.23980 24804 ft 473 kts 171°
2026-05-03 22:36 26.60582 34.24962 24069 ft 469 kts 170°
2026-05-03 22:36 26.57450 34.25940 23319 ft 466 kts 170°
2026-05-03 22:37 26.54378 34.26899 22530 ft 461 kts 170°
2026-05-03 22:37 26.51301 34.27861 21800 ft 456 kts 170°
2026-05-03 22:37 26.48261 34.28809 21091 ft 450 kts 170°
2026-05-03 22:37 26.45251 34.29746 20402 ft 445 kts 171°
2026-05-03 22:38 26.42286 34.30667 19713 ft 440 kts 171°
2026-05-03 22:38 26.39345 34.31580 19029 ft 436 kts 171°
2026-05-03 22:38 26.36434 34.32482 18343 ft 433 kts 171°
2026-05-03 22:38 26.33579 34.33366 17582 ft 429 kts 171°
2026-05-03 22:39 26.30716 34.34254 16885 ft 424 kts 171°
2026-05-03 22:39 26.27895 34.35128 16205 ft 418 kts 171°
2026-05-03 22:39 26.25110 34.35991 15553 ft 413 kts 171°
2026-05-03 22:39 26.22357 34.36843 14902 ft 408 kts 171°
2026-05-03 22:40 26.19629 34.37687 14260 ft 404 kts 171°
2026-05-03 22:40 26.16930 34.38521 13585 ft 401 kts 171°
2026-05-03 22:40 26.14249 34.39348 12890 ft 397 kts 171°
2026-05-03 22:40 26.11598 34.40166 12234 ft 393 kts 171°
2026-05-03 22:41 26.09007 34.40965 11575 ft 389 kts 171°
2026-05-03 22:41 26.06394 34.41773 11263 ft 377 kts 171°
2026-05-03 22:41 26.03944 34.42532 11071 ft 365 kts 171°
2026-05-03 22:41 26.01534 34.43277 10904 ft 351 kts 171°
2026-05-03 22:42 25.99217 34.43993 10757 ft 339 kts 172°
2026-05-03 22:42 25.96985 34.44682 10614 ft 327 kts 172°
2026-05-03 22:42 25.94817 34.45357 10483 ft 320 kts 172°
2026-05-03 22:42 25.92687 34.46020 10351 ft 316 kts 172°
2026-05-03 22:43 25.90581 34.46674 10236 ft 322 kts 172°
2026-05-03 22:43 25.88410 34.47400 10098 ft 331 kts 165°
2026-05-03 22:43 25.86372 34.48673 9848 ft 339 kts 152°
2026-05-03 22:43 25.84457 34.50215 9487 ft 340 kts 150°
2026-05-03 22:44 25.82580 34.51780 9141 ft 335 kts 149°
2026-05-03 22:44 25.80735 34.53331 8830 ft 330 kts 149°
2026-05-03 22:44 25.78920 34.54861 8514 ft 326 kts 149°
2026-05-03 22:44 25.77114 34.56372 8237 ft 324 kts 149°
2026-05-03 22:45 25.75313 34.57859 7921 ft 322 kts 149°
2026-05-03 22:45 25.73507 34.59332 7493 ft 323 kts 149°
2026-05-03 22:45 25.71725 34.60772 7198 ft 321 kts 149°
2026-05-03 22:45 25.69915 34.62220 6868 ft 320 kts 149°
2026-05-03 22:46 25.68101 34.63660 6567 ft 319 kts 149°
2026-05-03 22:46 25.66298 34.65079 6263 ft 317 kts 149°
2026-05-03 22:46 25.64500 34.66481 5945 ft 315 kts 149°
2026-05-03 22:46 25.62671 34.67804 5634 ft 313 kts 153°
2026-05-03 22:47 25.60794 34.69013 5349 ft 311 kts 154°
2026-05-03 22:47 25.58918 34.70188 5058 ft 309 kts 154°
2026-05-03 22:47 25.57043 34.71346 4772 ft 308 kts 154°
2026-05-03 22:47 25.55168 34.72490 4470 ft 308 kts 154°
2026-05-03 22:48 25.53291 34.73620 4244 ft 306 kts 154°
2026-05-03 22:48 25.51407 34.74741 4032 ft 308 kts 154°
2026-05-03 22:48 25.49506 34.75860 3818 ft 310 kts 154°
2026-05-03 22:48 25.47586 34.76980 3604 ft 312 kts 154°
2026-05-03 22:49 25.45702 34.78064 3376 ft 306 kts 154°
2026-05-03 22:49 25.43803 34.79138 3154 ft 299 kts 156°
2026-05-03 22:49 25.41874 34.79783 3014 ft 288 kts 176°
2026-05-03 22:49 25.39942 34.79644 2984 ft 271 kts 198°
2026-05-03 22:50 25.38303 34.78784 2985 ft 252 kts 221°
2026-05-03 22:50 25.37195 34.77397 2977 ft 233 kts 245°
2026-05-03 22:50 25.36716 34.75755 2994 ft 222 kts 262°
2026-05-03 22:50 25.36544 34.74074 2990 ft 219 kts 272°
2026-05-03 22:51 25.36781 34.72440 2993 ft 215 kts 294°
2026-05-03 22:51 25.37521 34.71017 3005 ft 213 kts 303°
2026-05-03 22:51 25.38375 34.69680 2991 ft 214 kts 313°
2026-05-03 22:51 25.39663 34.68708 3002 ft 234 kts 330°
2026-05-03 22:52 25.41080 34.67809 2827 ft 235 kts 328°
2026-05-03 22:52 25.42442 34.66908 2853 ft 220 kts 328°
2026-05-03 22:52 25.43730 34.66070 2661 ft 212 kts 328°
2026-05-03 22:52 25.44987 34.65260 2409 ft 206 kts 328°
2026-05-03 22:53 25.46182 34.64493 2148 ft 195 kts 328°
2026-05-03 22:53 25.47320 34.63762 1900 ft 183 kts 329°
2026-05-03 22:53 25.48385 34.63078 1667 ft 171 kts 328°
2026-05-03 22:53 25.49371 34.62445 1442 ft 157 kts 328°
2026-05-03 22:54 25.50284 34.61857 1246 ft 151 kts 328°
2026-05-03 22:54 25.51199 34.61271 1050 ft 153 kts 328°
2026-05-03 22:54 25.52118 34.60680 820 ft 151 kts 328°
2026-05-03 22:54 25.53010 34.60105 616 ft 148 kts 328°
2026-05-03 22:55 25.53895 34.59537 418 ft 145 kts 328°
2026-05-03 22:55 25.54767 34.58985 267 ft 142 kts 329°
2026-05-03 22:55 25.55538 34.58491 256 ft 109 kts 330°
2026-05-03 22:55 25.55983 34.58207 261 ft 22 kts 330°
2026-05-03 22:56 25.56072 34.58182 259 ft 7 kts 355°
2026-05-03 22:56 25.56060 34.58153 259 ft 7 kts 161°
2026-05-03 22:56 25.56018 34.58183 260 ft 8 kts 149°
2026-05-03 22:56 25.55955 34.58225 262 ft 14 kts 149°
2026-05-03 22:57 25.55853 34.58291 261 ft 20 kts 150°
2026-05-03 22:57 25.55709 34.58382 260 ft 27 kts 150°
2026-05-03 22:57 25.55555 34.58481 257 ft 20 kts 149°
2026-05-03 22:57 25.55487 34.58544 255 ft 12 kts 102°
2026-05-03 22:58 25.55515 34.58626 255 ft 12 kts 59°
2026-05-03 22:58 25.55564 34.58719 252 ft 17 kts 59°
2026-05-03 22:58 25.55618 34.58820 243 ft 13 kts 60°
2026-05-03 22:58 25.55607 34.58905 241 ft 13 kts 147°
2026-05-03 22:59 25.55532 34.58953 241 ft 12 kts 150°
2026-05-03 22:59 25.55482 34.58987 241 ft 6 kts 132°
2026-05-03 22:59 25.55493 34.59028 241 ft 6 kts 60°
2026-05-03 22:59 25.55508 34.59056 241 ft 3 kts 59°
2026-05-03 23:00 25.55510 34.59060 241 ft 0 kts 59°